Showing default

JILIN-01 GAOFEN 3E, 46457

Orbit data source: Space-Track

JILIN-01 GAOFEN 3E, 46457 is a payload satellite owned by Changguang WJ (CN) in SSO that was launched on Tue, 15 Sep 2020 UTC via a CHANG ZHENG 11 launch vehicle from the Yellow Sea Launch Area, China (YSLA). Payload-class satellites include a variety of spacecraft equipped with specific instruments for various scientific and technological missions. These include communications satellites like Starlink; space stations such as the ISS; scientific satellites like the Hubble; Earth observation satellites from companies like Planet Labs, Umbra, and HawkEye 360; GPS; miniature CubeSats for education and research; and military/defense satellites.

Loading next visibility...
Identifier
46457, 2020-065D
Orbit
SSO
Last TLE update
5 hours ago
Origin
Flag of CNCGSTL (CN / PRC)
Manufacturer
Changguang WJ
Mission
Operational Commercial Imaging
Bus & Motor
JL-1, Unknown motor
Mass
42 kg wet, 42 kg dry
Launch date (UTC)
2020-09-15 (5 years ago)
Launch vehicle
CHANG ZHENG 11
Launch site
Yellow Sea Launch Area, China (YSLA)
Object type
Payload
Rocket body
Debris
Shape & HBR
Box + 2 Pan, 1.5 m
Radar Cross Section
2.000 m², Medium (>0.1 m² and < 1m²)

Expand to show TLE details & history

TLE from 5 hours ago
0 JILIN-01 GAOFEN 3E
1 46457U 20065D   25130.51728045  .00018742  00000-0  54006-3 0  9992
2 46457  97.2886 177.1374 0022436 185.2458 174.8554 15.35525106257515
Epoch: 2025-05-10T12:24Z
Definitive object data (Epoch: 2025-05-10T12:24:53.03Z)
Latitude
-0.00009°
Longitude
122.35852°
Altitude
477.759 km
Speed
7.618 km/s
True Right ascension
11h 48m 32s
True Declination
0° 00' 00"
Sunlit
Object was in full shadow at TLE epoch
Visualization TLE readout
Latitude
3.06538°
Longitude
-57.02617°
Altitude
446.897 km
Speed
7.653 km/s
Apparent Right ascension
20h 51m 36s
Apparent Declination
-43° 39' 06"
Sunlit
Object is in daylight
Visualization observer readout
Local Sidereal Time
02:07:07
Azimuth
228.918° WSW
Elevation
-19.628°
Doppler factor
1
Orbital elements
Apogee altitude
471.635 km
Perigee altitude
440.968 km
Semi-major axis
6,834.438 km
Eccentricity
0.0022436
Inclination
97.2886°
RAAN
177.1374°
Arg. of periapsis
185.2458°
True anomaly
174.87839°
Mean anomaly
174.8554°
Eccentric anomaly
174.8669°
Mean motion
3.84139 °/min
BSTAR
0.00054006
Orbital period
93.72 mins
Loading maneuver chart data...
Loading SW <> Apogee altitude chart data...
Loading historical data...
Loading historical data...
Loading historical data...
Loading historical data...
Loading historical data...
Loading historical data...
Loading historical data...

JILIN-01 GAOFEN 3E Visibility forecast

Observer location: undefined°, undefined°

Span
Click to sort rows by Start time (UTC) header in descending order
Start Az.
Max El. time (UTC)
Max El. Az.
Max El.
End time (UTC)
End Az.
6 mins2025-05-11 02:37:28.348Z135.899° SSE2025-05-11 02:40:28.348Z67.647° E28.626°2025-05-11 02:43:28.348Z7.895° NNE
4 mins2025-05-11 15:35:28.348Z48.747° ENE2025-05-11 15:36:28.348Z83.291° E32.173°2025-05-11 15:39:28.348Z167.08° S
|